GW4034 Weather Reports


Display with metric or nautical units.
time (UTC)temp
F
wind
direction
speed
MPH
gust
MPH
rain 1hr
in
rain 24hr
in
rain mn
in
humidity
%
barometer
mb
20260903231739 80 207 0.0 0.0 0.00 0.18 0.18 76 1016.1
20260903231235 80 207 0.0 0.0 0.00 0.18 0.18 76 1016.1
20260903230731 81 207 0.0 0.0 0.00 0.18 0.18 75 1016.2
20260903230225 81 207 0.0 0.0 0.00 0.18 0.18 74 1016.2
20260903225722 81 208 0.0 0.0 0.00 0.18 0.18 74 1016.3
20260903225218 82 208 0.0 0.0 0.00 0.18 0.18 73 1016.4
20260903224714 82 208 0.0 0.0 0.00 0.18 0.18 73 1016.3
20260903224210 82 210 0.0 0.0 0.00 0.18 0.18 72 1016.6
20260903223705 83 208 0.0 0.0 0.00 0.18 0.18 72 1016.6
20260903223204 83 193 0.0 0.0 0.00 0.18 0.18 70 1016.7
20260903222704 84 202 0.0 0.0 0.00 0.18 0.18 70 1016.6
20260903222203 84 187 1.0 1.0 0.00 0.18 0.18 69 1016.6
20260903221658 84 218 0.0 0.0 0.00 0.18 0.18 70 1016.7
20260903221156 84 216 0.0 0.0 0.00 0.18 0.18 70 1016.3
20260903220655 84 130 2.0 2.0 0.00 0.18 0.18 69 1016.7
20260903220149 84 139 1.0 2.0 0.00 0.18 0.18 71 1016.5
20260903215649 84 210 0.0 0.0 0.00 0.18 0.18 70 1016.6
20260903215144 84 185 1.0 1.0 0.00 0.18 0.18 70 1016.5
20260903214642 84 183 1.0 1.0 0.00 0.18 0.18 70 1016.4
20260903214138 84 188 1.0 1.0 0.00 0.18 0.18 70 1016.5
20260903213633 84 151 3.0 3.0 0.00 0.18 0.18 69 1016.2
20260903213129 85 231 0.0 0.0 0.00 0.18 0.18 70 1016.3
20260903212625 85 211 0.0 0.0 0.00 0.18 0.18 70 1016.4
20260903212120 84 210 0.0 0.0 0.00 0.18 0.18 71 1016.4
20260903211614 85 137 3.0 3.0 0.00 0.18 0.18 69 1016.5
20260903211112 84 231 0.0 0.0 0.00 0.18 0.18 72 1016.7
20260903210606 83 203 0.0 0.0 0.00 0.18 0.18 72 1016.5
20260903205601 84 177 2.0 2.0 0.00 0.18 0.18 71 1016.5
20260903205055 84 214 0.0 0.0 0.00 0.18 0.18 70 1016.6
20260903204552 85 114 2.0 3.0 0.00 0.18 0.18 69 1016.4
20260903204046 85 136 1.0 1.0 0.00 0.18 0.18 69 1016.5
20260903203542 85 150 1.0 2.0 0.00 0.18 0.18 71 1016.4
20260903203041 85 205 0.0 0.0 0.00 0.18 0.18 68 1016.6
20260903202537 84 228 0.0 0.0 0.00 0.18 0.18 69 1016.4
20260903202032 84 248 0.0 0.0 0.00 0.18 0.18 69 1016.8
20260903201527 85 257 1.0 1.0 0.00 0.18 0.18 70 1016.8
20260903201026 85 265 0.0 1.0 0.00 0.18 0.18 69 1016.4
20260903200521 85 219 0.0 0.0 0.00 0.18 0.18 69 1016.5
20260903200016 85 191 0.0 0.0 0.00 0.18 0.18 70 1016.6
20260903195512 85 243 0.0 0.0 0.00 0.18 0.18 69 1016.6
20260903195008 85 286 0.0 1.0 0.00 0.18 0.18 69 1016.5
20260903194503 85 29 2.0 2.0 0.00 0.18 0.18 69 1016.8
20260903193958 85 247 1.0 1.0 0.00 0.18 0.18 68 1016.7
20260903193454 85 226 0.0 0.0 0.00 0.18 0.18 69 1016.8
20260903192949 86 215 0.0 0.0 0.00 0.18 0.18 68 1016.8
20260903192446 86 254 1.0 1.0 0.00 0.18 0.18 67 1016.9
20260903191940 86 241 1.0 1.0 0.00 0.18 0.18 67 1016.7
20260903191437 86 279 1.0 2.0 0.00 0.18 0.18 67 1016.9
20260903190936 87 250 0.0 1.0 0.00 0.18 0.18 67 1016.9
20260903190431 87 293 1.0 1.0 0.00 0.18 0.18 67 1017.0
20260903185930 86 283 0.0 1.0 0.00 0.18 0.18 66 1017.1
20260903185426 86 15 2.0 2.0 0.00 0.18 0.18 67 1017.1
20260903184921 87 233 1.0 2.0 0.00 0.18 0.18 67 1017.2
20260903184418 87 225 1.0 1.0 0.00 0.18 0.18 66 1017.2
20260903183918 88 335 1.0 2.0 0.00 0.18 0.18 65 1017.2
20260903183413 86 228 0.0 1.0 0.00 0.18 0.18 67 1017.0
20260903182912 85 218 1.0 1.0 0.00 0.18 0.18 67 1017.4
20260903182411 84 351 4.0 6.0 0.00 0.18 0.18 69 1017.4
20260903181906 85 229 2.0 3.0 0.00 0.18 0.18 68 1017.3
20260903181401 83 302 1.0 1.0 0.00 0.18 0.18 70 1017.1
20260903180900 83 349 4.0 7.0 0.00 0.18 0.18 70 1017.5
20260903180355 83 286 2.0 2.0 0.00 0.18 0.18 71 1017.4
20260903175854 82 21 2.0 2.0 0.00 0.18 0.18 71 1017.5
20260903175349 82 145 2.0 2.0 0.00 0.18 0.18 71 1017.6
20260903174843 82 260 2.0 2.0 0.00 0.18 0.18 72 1017.6
20260903174338 82 19 0.0 1.0 0.00 0.18 0.18 73 1017.5
20260903173832 82 332 3.0 4.0 0.00 0.18 0.18 72 1017.7
20260903173328 82 279 2.0 2.0 0.00 0.18 0.18 73 1017.9
20260903172824 82 275 1.0 2.0 0.00 0.18 0.18 72 1017.9
20260903172324 82 347 2.0 3.0 0.00 0.18 0.18 73 1018.0
20260903171820 82 242 1.0 1.0 0.00 0.18 0.18 74 1017.8
20260903171315 81 271 2.0 3.0 0.00 0.18 0.18 73 1017.9
20260903170815 81 261 4.0 4.0 0.00 0.18 0.18 73 1018.3
20260903170310 80 208 1.0 2.0 0.00 0.18 0.18 74 1018.4
20260903165808 80 338 2.0 2.0 0.00 0.18 0.18 74 1018.2
20260903165305 80 218 6.0 8.0 0.00 0.18 0.18 75 1018.1
20260903164756 80 235 2.0 2.0 0.00 0.18 0.18 75 1018.2
20260903164252 80 208 1.0 1.0 0.00 0.18 0.18 75 1018.1
20260903163751 80 287 2.0 3.0 0.00 0.18 0.18 75 1018.2
20260903163248 79 280 2.0 2.0 0.00 0.18 0.18 77 1018.4
20260903162744 78 272 0.0 1.0 0.00 0.18 0.18 78 1018.3
20260903162240 79 225 3.0 4.0 0.00 0.18 0.18 77 1018.6
20260903161730 79 239 3.0 7.0 0.00 0.18 0.18 77 1018.2
20260903161225 79 216 4.0 7.0 0.00 0.18 0.18 76 1018.5
20260903160721 78 226 5.0 7.0 0.00 0.18 0.18 77 1018.6
20260903160220 78 333 3.0 4.0 0.00 0.18 0.18 77 1018.9
20260903155719 78 234 3.0 3.0 0.00 0.18 0.18 79 1019.0
20260903155214 78 259 3.0 4.0 0.00 0.18 0.18 78 1019.0
20260903154709 78 333 2.0 3.0 0.00 0.18 0.18 78 1018.8
20260903154205 78 310 4.0 6.0 0.00 0.18 0.18 79 1019.0
20260903153701 77 278 2.0 3.0 0.00 0.18 0.18 80 1018.8
20260903153156 77 254 3.0 3.0 0.00 0.18 0.18 80 1018.7
20260903152652 77 333 1.0 2.0 0.00 0.18 0.18 80 1018.8
20260903152148 77 328 2.0 3.0 0.00 0.18 0.18 80 1019.0
20260903151648 77 300 2.0 2.0 0.00 0.18 0.18 81 1018.8
20260903151143 76 209 2.0 3.0 0.00 0.18 0.18 82 1018.9
20260903150643 76 235 2.0 2.0 0.00 0.18 0.18 81 1019.1
20260903150138 76 227 1.0 1.0 0.00 0.18 0.18 81 1018.9
20260903145637 76 242 1.0 2.0 0.00 0.18 0.18 82 1019.1
20260903145132 76 223 2.0 3.0 0.00 0.18 0.18 81 1019.2
20260903144631 75 52 1.0 2.0 0.00 0.18 0.18 83 1019.1
20260903144128 74 275 0.0 0.0 0.00 0.18 0.18 85 1019.0
20260903143624 75 128 4.0 6.0 0.00 0.18 0.18 84 1019.3
20260903143119 75 239 2.0 3.0 0.00 0.18 0.18 84 1019.1
20260903142615 75 288 1.0 1.0 0.00 0.18 0.18 85 1019.1
20260903142111 75 246 2.0 2.0 0.00 0.18 0.18 84 1019.3
20260903141606 75 208 2.0 2.0 0.00 0.18 0.18 84 1019.1
20260903141101 75 194 0.0 1.0 0.00 0.18 0.18 85 1018.9
20260903140557 75 220 3.0 4.0 0.00 0.18 0.18 84 1019.1
20260903140052 75 255 2.0 3.0 0.00 0.18 0.18 84 1019.1
20260903135549 74 217 2.0 2.0 0.00 0.18 0.18 85 1019.1
20260903135049 74 201 1.0 1.0 0.00 0.18 0.18 87 1019.3
20260903134548 74 330 0.0 1.0 0.00 0.18 0.18 87 1019.4
20260903134044 73 226 2.0 2.0 0.00 0.18 0.18 87 1019.3
20260903133536 73 235 2.0 2.0 0.00 0.18 0.18 87 1019.1
20260903133031 74 238 2.0 3.0 0.00 0.18 0.18 86 1019.4
20260903132526 73 224 1.0 2.0 0.00 0.18 0.18 87 1019.3
20260903132021 73 226 2.0 2.0 0.00 0.18 0.18 88 1019.1
20260903131516 71 224 2.0 3.0 0.00 0.18 0.18 90 1019.0
20260903131015 72 229 1.0 2.0 0.00 0.18 0.18 92 1019.1
20260903130510 71 220 1.0 1.0 0.00 0.18 0.18 93 1019.5
20260903130009 71 251 1.0 1.0 0.00 0.18 0.18 94 1019.5
20260903125508 71 233 1.0 2.0 0.00 0.18 0.18 95 1019.6
20260903125003 71 192 0.0 0.0 0.00 0.18 0.18 95 1019.6
20260903124458 70 213 0.0 0.0 0.00 0.18 0.18 96 1019.7
20260903123956 70 192 0.0 1.0 0.00 0.18 0.18 96 1019.7
20260903123451 70 228 1.0 1.0 0.00 0.18 0.18 96 1019.9
20260903122950 70 218 0.0 0.0 0.00 0.18 0.18 96 1019.8
20260903122444 70 223 0.0 0.0 0.00 0.18 0.18 96 1019.9
20260903121943 70 207 0.0 0.0 0.00 0.18 0.18 96 1019.9
20260903121438 70 202 0.0 0.0 0.00 0.18 0.18 96 1019.8
20260903120934 70 186 0.0 1.0 0.00 0.18 0.18 96 1019.7
20260903120433 70 235 0.0 0.0 0.00 0.18 0.18 96 1020.2
20260903115932 70 222 0.0 0.0 0.00 0.18 0.18 96 1019.8
20260903115432 69 218 0.0 0.0 0.00 0.18 0.18 96 1019.7
20260903114927 70 221 0.0 0.0 0.00 0.18 0.18 96 1019.9
20260903114422 70 221 0.0 0.0 0.00 0.18 0.18 96 1019.8
20260903113918 69 222 0.0 0.0 0.00 0.18 0.18 96 1020.0
20260903113414 69 225 0.0 0.0 0.00 0.18 0.18 96 1020.0
20260903112909 69 225 0.0 0.0 0.00 0.18 0.18 96 1020.0
20260903112405 69 227 0.0 0.0 0.00 0.18 0.18 96 1019.9
20260903111904 69 191 1.0 1.0 0.00 0.18 0.18 96 1019.8
20260903111403 69 195 0.0 0.0 0.00 0.18 0.18 96 1019.7
20260903110900 69 222 0.0 0.0 0.00 0.18 0.18 96 1019.9
20260903110355 69 231 0.0 0.0 0.00 0.18 0.18 96 1019.9
20260903105849 69 232 0.0 0.0 0.00 0.18 0.18 96 1019.6
20260903105344 69 205 0.0 0.0 0.00 0.18 0.18 96 1019.4
20260903104838 69 210 0.0 0.0 0.00 0.18 0.18 96 1019.7
20260903104334 69 211 0.0 0.0 0.00 0.18 0.18 96 1019.8
20260903103831 69 247 0.0 1.0 0.00 0.18 0.18 96 1020.0
20260903103326 69 229 0.0 0.0 0.00 0.18 0.18 96 1019.8
20260903102821 69 219 0.0 0.0 0.00 0.18 0.18 96 1019.9
20260903102316 69 227 0.0 0.0 0.00 0.18 0.18 96 1019.7
20260903101815 69 205 0.0 0.0 0.00 0.18 0.18 96 1019.6
20260903101310 69 304 1.0 2.0 0.00 0.18 0.18 96 1019.7
20260903100806 69 237 0.0 1.0 0.00 0.18 0.18 96 1019.5
20260903100300 69 233 0.0 0.0 0.00 0.18 0.18 96 1019.3
20260903095757 69 235 0.0 0.0 0.00 0.18 0.18 96 1019.2
20260903095251 69 194 0.0 0.0 0.00 0.18 0.18 96 1019.3
20260903094747 69 229 0.0 0.0 0.00 0.18 0.18 96 1019.4
20260903094241 68 189 1.0 1.0 0.00 0.18 0.18 96 1019.2
20260903093737 68 233 0.0 0.0 0.00 0.18 0.18 96 1019.5
20260903093232 68 204 1.0 1.0 0.00 0.18 0.18 96 1019.2
20260903092731 68 268 2.0 2.0 0.00 0.18 0.18 96 1019.5
20260903092227 68 234 0.0 0.0 0.00 0.18 0.18 96 1019.3
20260903091725 68 218 0.0 0.0 0.00 0.18 0.18 96 1019.3
20260903091220 68 232 0.0 0.0 0.00 0.18 0.18 96 1019.5
20260903090716 68 237 0.0 0.0 0.00 0.18 0.18 96 1019.4
20260903090214 68 240 0.0 0.0 0.00 0.18 0.18 96 1019.5
20260903085713 68 252 0.0 0.0 0.00 0.18 0.18 96 1019.1
20260903085209 68 213 0.0 0.0 0.00 0.18 0.18 96 1019.1
20260903084706 68 216 0.0 0.0 0.00 0.18 0.18 96 1019.3
20260903084201 68 216 0.0 0.0 0.00 0.18 0.18 96 1019.4
20260903083657 68 216 0.0 0.0 0.00 0.18 0.18 95 1019.6
20260903083157 68 233 0.0 0.0 0.00 0.18 0.18 95 1019.7
20260903082651 68 237 0.0 0.0 0.00 0.18 0.18 95 1019.8
20260903082147 68 232 0.0 0.0 0.00 0.18 0.18 95 1020.1
20260903081641 68 232 0.0 0.0 0.00 0.18 0.18 95 1020.0
20260903081138 68 240 0.0 0.0 0.00 0.18 0.18 95 1020.1
20260903080634 68 229 1.0 2.0 0.07 0.18 0.18 95 1020.3
20260903080132 68 251 0.0 0.0 0.07 0.18 0.18 95 1020.0
20260903075630 68 200 0.0 0.0 0.00 0.17 0.17 95 1019.8
20260903075125 68 189 0.0 0.0 0.00 0.17 0.17 95 1019.7
20260903074620 68 191 0.0 0.0 0.00 0.17 0.17 95 1020.0
20260903074120 68 201 0.0 0.0 0.00 0.17 0.17 95 1020.2
20260903073615 68 207 0.0 0.0 0.00 0.17 0.17 95 1020.1
20260903073111 68 205 0.0 0.0 0.00 0.17 0.17 95 1020.4
20260903072606 68 205 0.0 0.0 0.05 0.17 0.17 95 1020.3
20260903072102 68 205 0.0 0.0 0.05 0.17 0.17 95 1020.5
20260903071559 68 204 0.0 0.0 0.05 0.17 0.17 95 1020.5
20260903071059 68 216 0.0 0.0 0.07 0.16 0.16 95 1020.4
20260903070554 68 227 0.0 0.0 0.07 0.16 0.16 95 1020.6
20260903070050 68 223 0.0 1.0 0.00 0.15 0.15 95 1020.6
20260903065549 68 234 0.0 0.0 0.00 0.15 0.15 95 1020.6
20260903065048 68 226 0.0 0.0 0.00 0.15 0.15 95 1020.8
20260903064543 68 227 0.0 0.0 0.00 0.15 0.15 95 1020.5
20260903064038 68 215 0.0 0.0 0.05 0.15 0.15 95 1020.4
20260903063533 68 215 0.0 0.0 0.05 0.15 0.15 95 1020.5
20260903063029 68 216 0.0 0.0 0.00 0.14 0.14 95 1020.5
20260903062524 68 216 0.0 0.0 0.00 0.14 0.14 95 1020.5
20260903062020 68 203 0.0 0.0 0.00 0.14 0.14 95 1020.7
20260903061514 68 194 0.0 0.0 0.07 0.14 0.14 95 1021.2
20260903061003 68 317 0.0 0.0 0.07 0.14 0.14 95 1021.0
20260903060457 68 313 1.0 1.0 0.07 0.14 0.14 95 1021.2
20260903055957 68 263 0.0 0.0 0.00 0.13 0.13 95 1021.3
20260903055455 68 224 0.0 0.0 0.05 0.13 0.13 95 1021.1
20260903054954 68 192 0.0 0.0 0.05 0.13 0.13 94 1021.0
20260903054449 68 169 1.0 1.0 0.07 0.12 0.12 94 1021.0
20260903053945 68 281 1.0 2.0 0.12 0.12 0.12 94 1021.2
20260903053444 68 175 0.0 1.0 0.05 0.11 0.11 94 1021.0
20260903052941 68 188 0.0 0.0 0.07 0.10 0.10 94 1021.5
20260903052437 68 215 0.0 0.0 0.12 0.10 0.10 94 1022.0
20260903051932 68 218 0.0 0.0 0.19 0.09 0.09 94 1022.2
20260903051427 68 202 0.0 0.0 0.26 0.08 0.08 94 1022.3
20260903050923 68 276 2.0 2.0 0.17 0.06 0.06 94 1023.0
20260903050421 68 272 2.0 3.0 0.12 0.04 0.04 93 1023.4
20260903045916 68 258 1.0 1.0 0.12 0.03 0.03 93 1023.2
20260903045412 68 263 1.0 1.0 0.19 0.03 0.03 93 1022.7
20260903044909 69 215 0.0 0.0 0.07 0.01 0.01 93 1022.6
20260903044409 69 230 0.0 1.0 0.00 0.00 0.00 92 1022.8
20260903043906 69 229 0.0 0.0 0.00 0.00 0.00 92 1022.9
20260903043401 69 219 0.0 0.0 0.00 0.00 0.00 92 1022.9
20260903042859 69 219 0.0 0.0 0.00 0.00 0.00 92 1022.9
20260903042355 69 219 0.0 0.0 0.00 0.00 0.00 92 1022.6
20260903041851 69 219 0.0 0.0 0.00 0.00 0.00 92 1022.6
20260903041347 69 220 0.0 0.0 0.00 0.00 0.00 91 1022.9
20260903040843 69 220 0.0 0.0 0.00 0.00 0.00 91 1023.1
20260903040341 69 210 0.0 0.0 0.00 0.00 0.00 91 1022.9
20260903035838 69 197 0.0 0.0 0.00 0.15 0.15 91 1023.1
20260903035338 69 189 1.0 2.0 0.00 0.15 0.15 91 1023.1
20260903034833 69 208 0.0 0.0 0.00 0.15 0.15 91 1023.1
20260903034328 69 208 0.0 0.0 0.00 0.15 0.15 90 1023.2
20260903033823 69 203 0.0 0.0 0.00 0.15 0.15 90 1022.9
20260903033318 69 203 0.0 0.0 0.00 0.15 0.15 90 1022.6
20260903032818 69 199 0.0 0.0 0.00 0.15 0.15 90 1022.8
20260903032314 69 159 2.0 2.0 0.00 0.15 0.15 90 1022.6
20260903031809 69 188 0.0 0.0 0.00 0.15 0.15 90 1022.6
20260903031308 69 178 1.0 1.0 0.00 0.15 0.15 90 1022.8
20260903030805 69 237 1.0 1.0 0.00 0.15 0.15 90 1022.8
20260903030301 69 183 0.0 0.0 0.00 0.15 0.15 90 1023.0
20260903025756 69 181 0.0 0.0 0.00 0.15 0.15 90 1022.9
20260903025252 69 158 2.0 2.0 0.00 0.15 0.15 89 1023.0
20260903024752 69 197 0.0 0.0 0.00 0.15 0.15 89 1023.2
20260903024251 69 192 2.0 2.0 0.00 0.15 0.15 89 1023.1
20260903023747 68 108 2.0 3.0 0.00 0.15 0.15 89 1023.0
20260903023243 68 169 0.0 1.0 0.00 0.15 0.15 89 1023.3
20260903022742 68 170 1.0 1.0 0.00 0.15 0.15 89 1023.2
20260903022241 68 165 1.0 1.0 0.00 0.15 0.15 89 1023.5
20260903021736 68 178 1.0 1.0 0.00 0.15 0.15 89 1023.6
20260903021231 68 136 0.0 1.0 0.00 0.15 0.15 89 1023.4
20260903020725 69 183 0.0 1.0 0.00 0.15 0.15 89 1023.5
20260903020220 68 150 2.0 3.0 0.00 0.15 0.15 89 1023.6
20260903015715 68 200 3.0 4.0 0.00 0.15 0.15 89 1023.4
20260903015211 68 179 1.0 1.0 0.00 0.15 0.15 89 1023.5
20260903014707 68 166 1.0 1.0 0.00 0.15 0.15 89 1023.4
20260903014205 68 185 1.0 1.0 0.00 0.15 0.15 89 1023.7
20260903013700 69 174 0.0 1.0 0.00 0.15 0.15 89 1023.5
20260903013159 69 163 0.0 1.0 0.00 0.15 0.15 88 1023.6
20260903012658 69 96 3.0 3.0 0.00 0.15 0.15 88 1023.6
20260903012158 69 159 2.0 3.0 0.00 0.15 0.15 88 1023.5
20260903011652 69 144 3.0 4.0 0.00 0.15 0.15 88 1023.5
20260903011146 69 167 2.0 2.0 0.00 0.15 0.15 88 1024.1
20260903010642 69 96 2.0 3.0 0.00 0.15 0.15 88 1023.9
20260903010141 69 93 1.0 2.0 0.00 0.15 0.15 88 1023.9
20260903005640 69 188 0.0 1.0 0.00 0.15 0.15 88 1023.8
20260903005136 69 201 0.0 1.0 0.00 0.15 0.15 88 1024.0
20260903004631 68 189 1.0 1.0 0.00 0.15 0.15 88 1024.1
20260903004126 68 160 1.0 2.0 0.00 0.15 0.15 88 1024.4
20260903003621 68 146 0.0 0.0 0.00 0.15 0.15 88 1024.2
20260903003116 68 179 2.0 2.0 0.00 0.15 0.15 88 1024.2
20260903002612 68 180 1.0 1.0 0.00 0.15 0.15 88 1024.0
20260903002106 68 134 4.0 6.0 0.00 0.15 0.15 88 1023.8
20260903001601 68 150 3.0 3.0 0.00 0.15 0.15 88 1023.7
20260903001055 68 148 3.0 3.0 0.00 0.15 0.15 88 1023.8
20260903000551 68 196 0.0 0.0 0.00 0.15 0.15 88 1023.4
20260903000049 68 159 1.0 1.0 0.00 0.15 0.15 88 1023.3
20260902235543 68 129 2.0 3.0 0.00 0.15 0.15 88 1023.5
20260902235038 68 190 0.0 0.0 0.00 0.15 0.15 88 1023.2
20260902234538 68 179 1.0 1.0 0.00 0.15 0.15 88 1023.2
20260902234036 68 166 1.0 1.0 0.00 0.15 0.15 88 1023.2
20260902233531 68 116 3.0 4.0 0.00 0.15 0.15 88 1023.3
20260902233026 67 100 3.0 4.0 0.00 0.15 0.15 89 1023.5
20260902232525 67 91 2.0 2.0 0.00 0.15 0.15 90 1023.5
20260902232014 67 327 2.0 3.0 0.00 0.15 0.15 90 1023.5